Temp
22 21 20 20 20 20 20 21 21 21 21 22 22 21 21 21 21 23 24 25 26 25 25 26 25 25 26 26 27 28 27 27 25 24 23 22 21 21 20 19 19 19 18 18 17 16 16 16 16 16 16 16 16 17 18 17 18 18 17 17 17 17 18 18 18 19 18 17 17 18 18 18 18 18 18 18 18 18 18 18 18 18 17 17 17 17
21 20 19 20 20 21 21 21 21 21 21 21 21 21 21 21 21 23 24 25 26 25 24 25 25 25 26 26 27 27 26 27 26 24 23 22 21 21 20 19 19 19 18 18 17 16 16 16 16 16 16 16 16 16 17 18 17 17 17 17 17 17 18 18 18 19 18 17 18 18 18 18 18 18 18 18 18 18 18 18 18 17 17 17 17 17
20 19 19 20 21 21 21 21 21 20 21 21 20 20 20 21 22 23 24 25 25 24 24 25 24 24 25 26 26 26 26 27 26 23 23 22 22 21 21 20 19 18 18 17 17 16 17 16 16 16 15 16 16 16 17 17 16 17 17 17 18 18 18 18 19 19 18 18 18 19 18 18 18 18 19 18 18 18 18 18 18 18 18 18 17 17
19 19 20 21 20 20 21 21 21 20 20 20 20 20 20 21 21 21 23 25 25 24 24 24 23 24 25 25 26 26 26 26 25 23 23 23 22 22 21 19 19 18 18 17 17 17 17 16 16 15 15 15 16 16 17 17 16 16 17 17 18 18 18 19 19 19 19 18 18 19 19 19 19 19 19 18 18 18 18 18 18 18 18 18 17 17
19 21 21 21 20 20 21 21 20 20 20 20 20 20 20 21 22 22 23 24 25 24 24 23 22 22 24 24 26 26 25 26 26 24 22 23 23 21 20 19 19 19 18 18 18 17 16 15 15 15 15 15 15 15 16 16 16 16 17 18 18 18 18 19 19 19 19 18 19 19 18 19 19 18 18 18 18 18 18 18 18 18 18 18 17 17
20 21 22 21 21 20 20 21 20 20 20 20 21 21 22 22 22 23 23 23 23 23 24 24 21 21 23 25 26 26 26 27 25 23 22 22 22 21 20 19 19 19 18 18 17 16 15 15 14 14 14 15 15 15 16 16 16 16 17 17 18 18 19 19 19 19 19 18 19 19 18 18 18 18 18 18 18 18 18 18 18 18 18 18 18 18
21 22 22 22 21 21 21 21 21 21 20 20 22 23 23 22 22 23 23 22 21 21 24 24 21 21 22 25 27 25 26 27 24 23 22 21 21 20 19 19 18 18 18 17 16 15 15 15 15 14 14 15 15 15 16 16 15 15 17 17 18 18 18 19 19 19 18 18 19 19 19 19 19 18 18 18 18 18 18 18 18 18 18 18 18 18
22 22 22 22 21 21 20 21 21 21 20 20 23 24 24 23 23 23 23 22 21 22 23 24 23 21 21 24 26 24 26 26 24 22 21 20 20 19 19 18 18 18 16 16 15 15 15 15 14 14 15 15 15 15 15 15 15 15 17 18 18 18 18 18 19 19 19 19 19 19 19 19 19 19 18 18 18 19 18 18 18 18 18 18 18 18
23 22 22 22 21 21 21 22 22 22 21 22 25 25 25 25 24 24 23 22 22 21 21 22 23 21 21 23 25 25 26 24 20 20 20 19 19 18 18 18 18 17 16 15 15 15 15 15 14 15 15 15 16 17 16 15 15 16 18 18 18 18 18 18 18 19 19 19 20 20 19 19 19 19 19 18 18 18 18 18 18 18 18 18 18 18
23 23 23 23 21 21 22 23 23 23 23 24 25 25 25 24 24 24 23 22 21 21 21 22 22 21 21 23 24 25 25 21 17 18 18 18 18 18 18 18 17 16 15 15 15 15 15 15 15 15 15 15 16 18 17 16 16 17 18 18 17 18 18 18 19 19 20 20 20 20 20 19 19 19 19 18 18 18 18 18 18 18 18 18 18 18
22 23 24 24 23 23 23 24 23 23 24 25 25 24 24 23 23 23 22 22 21 20 21 22 22 22 21 21 22 22 22 19 17 17 17 17 18 18 18 17 16 16 15 15 15 15 15 15 15 15 15 14 15 17 17 17 17 17 18 17 17 18 18 18 19 20 20 20 20 20 20 20 19 19 19 18 18 18 18 18 18 18 18 18 18 18
22 23 23 24 25 25 25 25 24 24 25 25 24 23 22 22 22 22 21 21 20 20 21 22 22 22 21 21 20 20 20 19 18 17 17 17 18 17 17 17 16 15 15 15 15 16 15 15 15 14 14 14 15 16 16 17 17 17 17 17 17 18 18 19 19 20 20 20 20 20 20 20 19 19 19 19 19 19 19 18 18 18 18 18 18 18
22 23 23 24 26 26 25 24 24 24 25 24 23 22 21 20 21 21 20 21 20 20 22 22 22 22 20 20 19 18 19 19 18 17 17 17 17 17 17 16 16 15 15 15 15 15 15 15 14 14 14 15 15 15 15 16 16 16 17 17 17 18 18 18 19 20 20 20 20 20 20 20 19 19 19 19 19 19 18 18 18 18 18 18 18 17
21 23 23 23 25 26 25 24 23 23 24 23 22 21 21 20 20 20 20 20 20 21 21 22 22 21 20 19 18 18 19 18 18 17 18 18 18 18 17 16 16 16 15 15 15 15 15 15 15 15 15 15 15 15 15 15 16 16 16 17 17 18 18 18 19 20 20 20 20 20 20 19 19 19 19 19 19 19 18 18 18 18 18 18 18 17
20 21 23 23 24 25 25 24 24 24 24 23 23 22 21 21 20 20 20 20 20 21 21 21 21 20 19 18 17 18 18 18 18 18 18 18 18 18 17 16 16 16 15 15 15 15 15 15 15 15 15 15 15 15 15 15 15 16 16 16 17 17 17 18 18 19 19 19 19 19 19 19 19 19 19 19 19 18 18 18 18 18 18 18 17 17
20 20 23 24 24 25 25 25 25 24 23 23 23 22 21 22 22 20 20 20 20 21 21 20 20 19 18 17 17 17 17 17 17 17 18 17 17 17 16 16 16 16 15 15 15 16 15 15 15 15 15 15 15 15 15 15 15 16 16 16 17 17 17 17 18 18 19 19 19 19 19 19 19 19 19 19 18 18 18 18 18 18 18 18 17 17
20 21 24 25 24 25 26 25 25 24 23 22 22 22 22 23 23 21 20 20 20 21 20 20 19 18 18 17 17 16 17 17 17 17 17 17 16 16 16 16 16 15 15 15 15 16 15 15 15 15 15 15 15 15 15 15 15 15 16 16 17 17 17 17 17 18 18 19 19 19 19 19 19 19 19 19 19 19 19 18 18 18 18 17 17 17
20 21 23 24 24 25 25 25 25 25 25 23 22 23 23 22 22 22 20 20 20 20 20 19 18 18 18 17 16 16 16 17 17 17 17 16 16 16 16 15 15 15 15 15 15 15 15 14 14 15 15 15 15 15 16 15 15 15 16 16 17 17 17 17 17 18 18 19 19 19 19 19 19 19 19 19 19 19 19 18 18 18 17 17 17 17
21 20 22 23 23 24 25 24 24 24 25 24 24 24 23 21 21 21 20 20 20 20 19 19 18 18 18 17 17 17 16 17 17 17 17 16 16 16 15 15 15 15 15 15 14 15 14 14 14 14 15 15 15 15 15 15 15 16 16 16 17 17 17 17 17 17 18 18 19 19 19 19 19 19 19 19 19 19 19 18 18 18 17 17 17 17
21 20 21 23 24 23 23 23 22 22 24 25 24 24 22 21 21 21 20 20 20 20 19 19 19 18 17 17 17 17 16 17 17 17 17 17 16 16 15 15 15 15 15 15 14 14 14 14 14 14 15 15 15 15 15 15 16 16 16 16 17 17 17 17 17 17 17 17 17 18 18 19 19 19 19 19 19 19 19 18 18 18 17 17 17 17
20 20 20 22 23 22 21 21 21 21 21 23 22 22 21 21 21 21 21 20 20 20 19 19 19 17 17 16 16 16 16 16 16 16 16 16 16 16 15 15 15 15 15 14 14 14 14 14 14 14 15 15 15 15 15 16 16 16 16 16 16 17 17 17 16 16 15 14 14 15 15 17 18 19 19 19 19 19 18 18 18 17 17 17 17 17
20 19 19 21 22 21 20 21 21 20 20 20 20 20 20 20 20 21 20 20 21 20 19 19 19 17 15 15 14 15 15 15 16 16 16 16 16 15 15 15 15 15 14 14 14 14 14 14 14 14 15 15 15 15 15 16 16 16 16 16 16 16 16 16 15 15 15 15 15 16 16 16 17 19 19 19 19 19 18 18 17 17 17 17 17 16
20 19 19 20 20 20 20 21 21 20 19 19 19 18 19 20 20 20 21 20 20 19 18 19 19 17 15 14 14 14 14 15 15 15 15 15 15 15 14 15 15 15 14 14 14 14 14 14 14 14 14 15 15 15 14 15 15 15 15 15 15 15 15 15 15 15 15 16 16 17 18 17 17 18 18 18 18 18 18 17 17 17 17 17 17 16
20 18 18 19 20 20 20 20 20 20 20 19 18 17 18 19 19 19 20 21 20 19 19 19 18 16 15 14 14 14 14 14 14 15 15 14 14 14 14 14 14 14 14 14 14 14 14 14 14 14 14 14 14 14 14 14 14 14 15 15 15 15 15 15 15 15 15 15 15 16 17 17 17 17 17 18 18 18 18 17 17 17 17 17 17 17
19 18 18 19 19 19 20 20 19 19 19 18 17 17 17 18 18 19 20 20 20 19 19 20 18 16 14 14 14 15 15 14 14 14 14 14 14 14 14 14 14 14 14 14 14 13 13 13 13 13 13 13 13 14 14 14 14 14 14 14 14 14 15 14 14 15 15 16 16 16 16 17 17 17 16 17 17 17 17 17 17 17 17 17 17 17
19 18 18 18 18 18 19 19 18 18 18 17 17 17 17 17 17 19 20 20 20 19 18 19 17 15 14 14 14 14 14 14 14 14 14 13 13 13 14 13 13 13 13 13 12 12 12 12 12 12 13 13 13 14 14 14 14 14 14 14 14 14 14 14 14 14 15 16 15 16 16 16 16 16 15 15 16 17 17 17 17 17 17 17 17 17
17 17 18 18 17 18 18 18 18 18 17 16 16 17 17 17 17 18 19 20 19 18 17 16 15 15 15 14 14 14 14 14 14 14 14 13 13 13 12 12 12 11 11 11 11 11 11 11 10 11 11 12 13 13 13 13 13 13 13 14 14 14 14 14 14 14 14 15 15 15 15 14 15 15 15 15 16 16 17 17 17 17 17 17 17 17
17 16 17 17 17 18 18 17 18 18 17 16 16 17 17 18 18 18 18 16 16 18 18 15 15 16 15 14 14 14 14 14 14 14 13 13 12 12 11 11 11 10 10 10 10 10 10 10 10 10 10 11 12 12 13 13 13 13 13 13 14 14 14 14 14 14 13 14 14 14 13 13 14 15 15 15 16 16 17 17 17 17 17 17 17 17
16 15 14 15 17 18 17 17 18 17 16 15 16 17 17 18 18 17 15 14 14 17 18 15 15 15 15 14 14 14 14 14 13 13 13 12 11 11 11 11 10 10 10 10 10 10 10 10 10 10 11 11 11 12 12 13 13 13 13 13 13 13 13 14 14 13 13 14 14 13 13 13 14 15 15 16 15 15 16 17 17 17 17 17 17 17
15 14 13 14 16 16 16 16 17 16 15 14 14 15 15 16 16 15 14 13 14 15 15 14 14 13 13 13 13 13 13 13 13 13 12 11 11 11 10 10 10 10 10 9 9 10 10 10 10 10 10 11 11 11 12 12 12 13 13 12 12 12 13 13 13 13 13 13 13 13 13 13 14 15 15 15 15 15 15 16 16 16 17 17 17 17
15 14 13 14 15 15 15 15 16 15 14 13 13 13 13 14 15 15 14 14 14 14 13 13 13 12 11 12 12 12 12 12 12 11 11 11 10 10 10 10 9 10 10 9 9 9 9 9 9 9 10 10 10 11 11 11 12 13 12 12 12 13 13 13 13 13 13 13 12 12 13 13 14 14 14 14 14 14 15 15 15 16 16 16 16 17
16 14 13 14 14 14 14 15 15 14 14 14 13 12 12 13 15 15 15 14 14 13 13 13 12 11 10 11 11 11 11 10 10 9 10 10 10 10 9 9 9 9 9 9 9 9 8 8 9 9 9 9 10 10 10 11 12 12 12 12 12 13 13 13 13 13 13 13 13 12 12 12 12 13 13 14 13 13 14 15 15 15 16 16 16 16
15 15 14 14 14 13 14 14 14 15 15 14 12 11 11 12 14 14 14 14 14 14 14 13 11 10 10 10 10 9 9 9 8 8 9 9 9 9 8 8 8 8 8 8 7 7 7 8 8 8 8 9 9 10 10 11 11 11 11 12 12 12 12 12 12 12 12 13 13 12 13 12 12 12 13 13 12 12 13 15 15 15 15 16 15 15
14 14 14 13 13 13 13 13 14 15 15 13 12 11 11 11 13 13 13 12 12 12 12 11 10 9 9 8 8 7 7 7 7 8 8 8 8 7 7 7 7 7 7 7 7 6 6 7 7 7 7 8 9 9 10 10 11 11 11 11 12 12 12 11 12 12 11 12 12 12 12 13 13 13 13 13 13 13 13 14 14 14 15 15 15 15
13 14 13 13 14 14 13 13 14 14 13 12 11 11 11 11 12 12 12 11 10 10 10 9 9 8 7 7 6 6 6 6 6 7 6 7 7 6 7 7 7 7 7 7 7 7 7 6 7 7 7 8 9 9 10 10 10 11 11 11 11 11 11 11 11 11 11 11 11 11 11 12 12 12 12 12 13 13 13 13 14 14 14 14 15 15
14 14 14 13 14 13 13 13 13 13 12 11 11 11 11 11 12 12 12 11 10 10 10 9 8 7 7 7 6 6 6 6 7 6 6 6 6 6 6 6 7 7 7 7 7 7 7 7 7 7 7 8 9 10 10 10 10 10 11 11 11 11 11 11 11 11 11 11 11 11 11 11 12 12 12 12 12 13 13 13 13 13 13 13 13 14
15 14 14 13 13 13 12 12 12 12 11 11 11 11 10 10 10 10 11 11 10 10 9 8 8 7 7 7 7 7 7 7 7 6 7 7 7 7 7 7 7 7 7 7 7 7 8 8 8 8 8 9 9 9 9 10 10 10 10 10 10 10 10 10 10 10 10 10 10 11 11 11 11 11 11 11 12 12 12 12 12 12 12 13 13 13
14 14 15 14 12 12 12 12 12 12 12 11 11 11 11 10 10 10 11 11 10 10 9 8 8 7 7 7 7 8 9 8 7 7 7 7 7 7 8 8 8 8 8 8 8 8 8 8 8 9 9 9 9 9 9 10 10 10 10 10 10 10 10 9 9 9 9 9 10 10 10 10 10 10 10 10 10 10 11 11 12 12 12 12 12 13
13 13 14 14 13 12 13 12 11 12 11 10 10 11 11 10 10 11 12 11 10 10 9 9 8 8 8 8 8 9 10 9 7 7 8 8 8 8 8 8 8 8 8 9 9 9 9 9 9 9 9 9 9 9 9 9 10 10 9 9 9 9 9 9 9 9 9 9 9 9 9 9 10 10 10 10 9 9 10 10 10 11 11 12 12 12
13 12 13 13 12 12 12 11 10 10 11 10 11 11 11 10 11 12 13 12 10 10 10 9 8 8 8 9 9 9 9 8 7 8 8 8 8 8 8 8 8 8 9 9 9 9 9 9 9 9 9 9 9 9 9 9 9 9 9 9 9 9 9 9 8 8 8 8 8 8 8 8 8 8 8 9 9 9 9 9 10 10 11 11 11 11
12 12 12 12 11 11 11 10 10 10 10 10 10 11 11 11 12 12 12 11 10 10 10 9 9 9 9 9 9 9 9 9 9 9 9 9 9 8 8 8 8 8 8 9 9 9 9 9 9 9 9 9 9 9 9 9 9 9 9 9 9 8 8 8 8 8 8 8 8 8 8 7 7 7 7 7 7 8 8 8 9 9 9 10 10 10
12 11 11 11 11 11 11 10 10 10 10 9 9 10 11 12 12 11 11 10 10 10 10 10 10 10 10 10 10 9 9 10 9 9 9 9 9 8 8 9 8 8 8 9 9 9 9 9 9 9 9 9 9 9 9 9 9 8 8 8 7 7 8 8 8 8 8 7 7 7 7 7 7 7 7 6 7 7 7 7 7 8 8 8 9 9
11 11 11 10 10 10 10 10 10 10 9 8 9 10 10 10 11 10 10 10 10 10 10 10 10 10 10 9 9 9 9 9 9 9 9 8 8 8 8 8 8 8 9 9 9 9 9 9 9 9 9 9 9 9 9 8 8 8 7 7 6 7 7 7 7 7 7 7 6 6 6 6 6 6 6 6 6 6 6 6 6 6 7 7 7 7
11 11 11 10 10 10 9 9 9 9 8 8 9 10 9 8 10 10 9 9 10 10 10 9 9 9 9 9 9 9 8 8 8 8 8 8 8 7 7 7 8 8 9 9 9 9 9 9 9 9 9 9 9 8 8 8 7 7 6 6 6 7 7 7 7 7 6 6 6 6 6 6 5 5 5 5 5 5 5 5 5 6 6 6 6 6
11 11 11 9 9 9 9 8 8 8 8 8 8 8 8 8 9 9 9 9 9 9 9 9 9 9 9 9 8 8 8 8 8 8 8 8 7 7 7 8 8 8 9 9 9 9 9 9 9 8 8 8 8 7 7 7 7 6 6 5 6 6 6 6 6 6 5 5 5 5 5 5 5 5 5 5 5 5 5 5 5 5 5 5 5 5
11 11 11 10 9 9 9 9 8 8 8 8 8 8 8 8 8 8 8 8 8 9 9 9 9 9 9 9 9 9 8 8 8 8 8 8 7 6 7 8 8 8 9 8 8 8 8 8 8 8 7 7 7 7 6 6 6 6 5 5 5 5 5 5 5 5 4 4 4 4 4 4 4 4 4 4 4 4 4 4 4 4 4 4 4 4
11 11 11 10 9 9 8 8 8 8 8 8 8 8 8 8 8 8 8 8 8 8 9 8 8 9 9 9 9 8 8 9 9 8 8 8 6 6 7 7 7 8 8 8 8 8 8 8 8 7 7 6 6 6 6 6 6 6 5 5 5 5 5 5 4 4 4 3 4 4 4 3 3 4 4 4 4 4 4 4 4 4 4 4 4 4
11 11 11 10 9 9 9 8 8 8 8 9 9 9 9 9 8 8 8 8 9 9 8 8 9 9 9 9 9 9 8 8 8 8 7 7 6 6 6 7 7 8 8 8 8 8 8 7 7 7 7 6 6 6 6 6 6 5 5 5 5 5 5 4 4 3 3 3 3 3 3 3 3 3 3 3 3 3 3 3 3 3 3 3 4 4
11 11 10 9 9 9 8 8 8 8 8 8 8 8 9 9 9 9 9 9 9 9 9 8 8 8 8 8 8 8 8 7 6 6 6 5 5 5 6 7 7 8 7 7 8 8 8 7 7 7 6 6 6 6 6 6 6 5 5 5 5 5 4 4 4 3 3 3 3 3 3 3 3 3 3 3 3 3 3 3 3 3 3 3 3 3
10 10 9 9 8 8 8 8 9 9 8 8 8 9 9 9 9 9 9 9 9 9 9 9 8 7 7 7 7 7 7 6 5 4 4 4 4 5 6 7 7 7 7 7 7 7 7 7 7 7 6 6 6 6 6 6 6 5 5 5 5 4 4 4 4 4 3 3 3 3 3 3 3 3 3 3 3 3 3 3 3 2 2 2 3 3
10 10 10 9 9 9 9 9 10 10 9 8 8 9 8 9 9 9 9 9 8 8 8 9 9 7 6 6 6 6 5 4 4 4 3 4 5 6 6 6 7 6 7 7 7 7 7 7 6 6 6 6 6 6 6 6 5 5 5 5 4 4 4 4 4 4 3 3 3 3 3 3 3 3 3 3 3 3 3 2 2 2 2 2 2 2
Height
753 762 766 764 763 763 763 762 761 762 762 763 764 766 766 766 763 752 743 737 735 744 744 739 741 739 732 727 721 718 718 722 727 732 738 741 744 746 748 750 750 750 751 753 757 761 764 767 769 772 774 776 778 780 782 784 786 790 794 796 797 799 800 801 802 802 804 807 809 808 809 810 810 811 811 812 813 814 815 815 816 817 817 817 817 818
755 765 764 759 760 759 758 758 759 761 762 764 766 768 768 767 762 750 742 738 734 743 743 735 739 737 728 724 719 718 721 722 724 731 736 740 743 743 746 748 749 751 752 755 759 761 765 767 770 772 774 776 777 779 780 781 783 788 792 795 796 798 799 800 801 801 801 804 807 807 808 809 810 811 811 812 813 814 815 815 816 817 817 818 818 818
763 764 759 754 755 756 756 756 758 762 763 765 767 770 771 765 759 749 740 737 735 742 741 734 738 735 722 719 717 716 719 719 720 725 729 733 739 742 744 747 749 751 754 757 761 763 765 768 770 773 775 776 776 777 778 781 783 786 791 794 794 796 798 799 801 802 802 804 806 807 808 809 810 811 811 812 813 814 815 815 816 817 817 818 818 818
768 760 751 751 753 756 758 756 758 763 764 766 767 771 770 761 761 757 744 737 735 737 738 734 737 732 722 720 718 714 715 715 717 721 723 724 730 735 739 743 745 749 754 759 763 765 767 770 773 774 776 779 781 780 780 782 784 787 791 792 793 795 797 798 800 802 803 804 806 807 808 809 810 811 812 813 814 814 815 815 816 817 817 818 818 819
762 749 743 749 752 755 758 756 759 764 766 765 763 767 765 757 758 756 746 739 734 732 730 734 741 736 726 726 720 715 715 715 716 721 725 725 728 732 737 742 745 748 754 760 763 766 768 773 778 779 781 784 787 786 786 786 785 787 790 791 792 794 795 797 799 801 802 803 805 807 808 810 811 812 813 813 814 814 815 816 816 817 818 819 819 819
755 742 741 748 750 753 757 756 757 762 766 765 758 755 754 751 751 750 746 745 746 744 730 732 752 746 729 725 721 717 718 717 718 723 727 729 733 737 742 746 748 752 757 760 764 767 769 772 777 780 781 783 784 786 787 787 787 788 790 791 792 793 794 796 797 799 800 801 804 805 807 808 810 811 812 812 813 814 815 816 817 818 819 819 820 820
746 738 739 746 748 750 755 755 751 754 766 766 750 741 742 746 749 747 747 749 754 752 733 731 752 749 732 723 719 721 721 719 722 726 729 732 735 739 744 747 750 754 759 763 767 769 770 773 776 777 776 776 780 784 786 787 790 792 791 793 794 794 795 795 796 798 799 801 803 805 806 807 809 810 811 812 813 814 815 817 817 818 819 820 821 821
737 737 740 743 745 750 755 754 745 746 761 760 740 733 737 740 744 743 745 751 751 747 737 732 740 745 740 727 720 724 721 722 729 731 735 738 739 743 746 748 751 756 760 764 768 770 772 775 776 776 775 773 776 783 787 789 792 793 791 792 793 794 795 796 797 798 798 800 802 804 805 807 808 809 811 812 813 815 816 817 818 819 820 821 822 823
732 736 738 739 746 751 749 743 735 739 751 744 728 729 731 732 737 737 742 748 747 750 749 737 733 747 749 730 721 723 720 731 743 741 742 745 744 746 748 749 753 757 761 764 767 770 774 775 772 771 772 770 770 776 784 788 790 790 789 789 791 792 794 796 797 798 799 800 801 803 805 806 808 809 811 812 814 816 817 817 818 819 821 822 823 824
731 730 728 733 742 744 738 730 727 734 739 731 724 727 727 730 735 736 741 745 748 757 756 740 734 748 752 733 726 727 726 744 756 749 748 749 747 747 747 751 755 759 762 764 766 770 772 771 769 769 770 770 768 769 776 783 785 785 786 787 788 791 793 795 796 797 798 800 801 803 804 806 808 809 811 813 815 816 817 818 819 820 821 822 823 824
728 724 723 727 729 728 725 722 722 726 727 723 725 729 731 736 738 739 743 745 755 765 753 737 734 744 752 743 737 739 739 747 754 753 754 751 748 749 748 751 755 758 762 764 765 767 767 766 765 768 770 771 769 765 770 776 779 781 782 785 787 790 793 795 796 797 799 800 801 803 804 806 807 808 810 813 814 816 817 818 819 820 822 822 823 824
729 727 725 720 716 716 717 719 719 719 720 722 727 733 741 746 745 748 749 749 765 769 747 735 735 740 754 755 751 749 742 741 745 749 753 751 751 751 750 753 755 758 762 764 764 764 763 763 764 766 768 769 768 765 766 771 774 778 780 783 786 790 793 795 797 799 800 801 801 802 803 805 806 807 809 811 813 815 816 818 820 821 822 823 823 824
732 728 724 717 711 710 716 722 722 720 720 725 732 741 753 760 759 761 760 759 767 760 740 735 736 743 758 762 759 753 743 740 743 745 747 747 748 749 749 752 754 758 763 765 766 764 762 762 762 763 763 763 765 765 766 769 773 776 778 781 785 789 794 796 798 799 800 801 801 802 803 804 806 808 809 811 812 814 816 818 820 821 822 823 824 824
738 728 720 720 714 707 712 724 731 729 726 730 736 744 756 765 771 774 770 767 765 752 739 736 737 748 761 763 760 755 748 744 743 744 747 746 746 747 748 752 755 759 763 765 766 764 761 760 759 760 760 760 763 765 768 772 775 776 778 781 785 789 794 796 798 800 801 802 802 802 803 805 807 808 810 811 813 815 817 818 820 821 822 823 824 824
748 742 725 720 717 709 710 717 722 724 725 728 728 735 747 753 761 769 765 764 763 754 745 741 744 758 770 770 762 755 753 751 744 742 744 747 749 750 752 756 758 761 763 764 765 762 759 759 760 761 761 761 763 767 772 776 779 779 780 782 785 789 793 796 799 800 801 802 803 803 805 806 807 808 810 811 813 815 817 819 820 821 822 823 824 824
747 744 721 711 711 707 709 710 709 718 728 728 725 734 742 737 740 754 759 758 757 756 754 754 761 768 772 772 764 755 760 761 754 747 746 749 753 755 758 761 762 763 764 764 763 761 760 761 763 764 764 765 768 772 776 779 782 782 782 783 786 790 793 797 799 801 802 802 803 803 805 806 807 808 810 811 813 815 817 819 820 821 822 823 824 824
744 739 717 710 710 705 706 706 705 716 727 728 730 734 732 723 726 745 760 760 756 759 763 765 773 775 772 774 770 764 768 770 764 759 757 757 759 760 762 764 764 765 765 764 762 761 762 763 765 768 769 771 773 775 779 782 785 785 784 784 787 791 794 797 799 801 802 802 803 804 805 806 808 809 811 812 813 816 817 819 820 821 822 823 824 825
740 739 721 714 716 707 701 704 704 707 713 724 731 726 722 725 727 737 754 763 763 766 767 770 778 779 778 782 779 771 773 775 771 767 765 765 765 765 766 766 766 766 767 767 766 765 766 767 769 771 773 775 776 779 782 785 787 788 787 787 788 791 794 797 800 801 803 803 803 805 806 808 809 811 813 813 814 816 817 819 820 821 822 823 824 825
733 742 728 714 716 711 701 708 715 710 705 713 719 715 723 737 739 741 752 761 767 773 773 775 780 780 779 781 779 776 775 773 772 770 769 769 769 769 769 768 768 769 771 772 771 771 772 772 774 776 777 778 780 782 784 786 788 789 790 790 790 792 795 797 800 801 803 804 804 806 808 809 810 812 813 814 814 815 817 818 820 821 822 823 824 826
730 743 737 716 711 712 710 719 730 726 714 709 712 716 724 733 737 742 748 751 760 771 776 776 778 779 778 776 775 776 775 771 769 769 768 768 768 769 771 771 771 772 773 774 774 775 776 776 778 779 780 782 783 784 785 787 788 789 791 792 793 794 796 798 801 803 804 805 805 807 808 809 810 812 813 813 814 815 816 818 819 820 822 823 824 825
732 742 742 725 712 717 728 730 731 733 727 720 724 731 733 733 735 740 744 745 750 763 773 776 779 781 777 774 775 775 775 772 770 770 769 767 767 768 771 772 772 773 774 775 775 776 777 778 780 781 783 784 786 787 787 788 789 790 792 794 795 796 797 799 801 803 804 805 806 808 810 811 812 812 813 813 814 815 817 818 819 820 821 822 823 824
736 742 743 735 725 728 736 729 722 729 733 732 736 740 741 739 738 744 750 748 745 754 765 768 775 783 780 777 779 778 775 774 772 771 770 770 769 770 771 772 773 774 775 776 776 776 777 779 781 783 784 786 788 789 789 790 791 792 793 794 795 797 797 799 800 802 804 805 808 811 813 814 814 813 813 814 815 817 818 819 820 821 822 823 824 825
733 740 744 741 735 735 733 724 720 725 729 734 739 742 742 739 738 744 750 748 748 755 761 761 769 781 782 780 781 780 777 774 773 771 770 771 772 773 774 774 774 775 775 776 778 778 778 780 782 784 785 787 788 789 791 792 792 793 793 794 795 797 798 799 800 802 804 805 807 809 811 812 814 814 815 815 816 818 819 821 821 822 823 824 825 827
732 742 746 742 737 735 731 725 723 723 727 736 744 744 742 741 743 743 740 739 746 756 760 761 771 781 781 780 781 779 777 776 776 775 773 773 774 775 776 776 776 776 777 777 778 779 779 780 783 785 786 787 789 791 792 794 794 794 794 795 795 797 798 799 800 802 804 805 807 808 810 812 815 816 817 817 818 820 821 822 822 823 824 824 826 828
736 747 750 749 746 743 741 737 735 734 737 745 750 749 746 745 745 742 739 738 745 752 751 754 769 780 780 780 781 778 776 778 779 779 779 778 777 777 777 777 778 779 779 779 780 781 781 783 785 786 787 788 790 792 793 794 796 795 795 795 795 796 797 798 800 801 802 804 806 808 810 811 814 817 818 818 819 821 822 822 823 824 824 825 826 828
737 746 746 752 758 756 753 750 746 744 746 751 753 750 748 748 746 743 740 741 748 754 754 758 770 779 779 779 781 779 778 779 779 780 782 782 780 779 778 779 781 783 784 784 784 785 786 787 789 789 789 790 791 792 793 793 795 795 795 795 795 795 796 797 798 800 801 802 804 807 809 811 813 815 817 819 820 821 822 823 824 824 824 825 826 827
741 746 743 749 755 754 752 750 746 743 748 756 758 753 750 750 749 746 743 745 751 756 762 770 772 774 779 781 780 780 780 780 781 782 783 784 782 781 782 783 785 788 789 789 789 790 791 793 794 794 793 792 792 792 793 793 794 795 795 794 794 795 796 797 798 800 801 802 804 808 810 813 815 815 816 819 820 821 822 822 823 823 824 825 825 827
744 748 747 749 750 747 747 747 743 743 750 757 757 754 752 748 747 751 755 760 762 756 760 770 769 769 778 781 780 781 780 780 782 784 785 786 786 786 787 788 790 791 792 793 794 795 796 797 798 797 796 795 793 793 793 794 795 796 795 795 795 796 797 798 799 800 802 804 805 808 810 812 813 813 814 816 818 819 820 821 822 823 824 825 825 826
747 754 756 755 750 746 747 746 745 747 753 758 756 753 753 749 749 757 764 769 767 758 757 768 771 772 777 780 780 781 780 780 784 785 787 788 789 790 790 792 794 795 795 797 799 799 800 800 799 798 797 796 795 794 794 795 796 796 796 797 798 799 799 799 800 800 802 803 805 807 809 810 811 811 812 813 816 818 819 820 821 822 823 824 825 826
750 759 764 760 754 752 753 752 750 751 757 763 765 761 760 758 758 764 768 769 768 765 766 770 775 780 783 782 782 782 782 783 785 787 790 792 794 794 795 796 798 799 800 802 803 803 802 801 800 799 797 796 795 796 795 796 796 797 798 798 799 800 800 801 801 801 802 805 807 808 809 809 810 810 812 814 816 818 820 821 822 822 823 824 825 826
749 760 765 761 760 761 760 757 758 760 763 769 773 772 769 766 763 764 768 768 768 773 776 777 781 789 791 787 785 786 786 786 789 792 794 797 798 798 798 800 802 803 804 805 804 804 803 802 802 800 799 799 799 798 798 798 798 799 799 800 801 802 803 802 803 803 804 806 809 810 811 812 812 813 815 816 818 820 821 822 823 823 823 824 825 826
750 759 764 762 765 768 764 760 763 763 762 768 775 779 778 773 767 765 766 766 769 775 779 781 787 795 797 792 790 792 791 793 799 802 801 802 802 801 802 803 804 806 807 807 807 806 805 806 806 805 804 804 803 802 802 802 802 802 803 804 805 805 806 806 806 807 807 808 811 813 814 815 816 816 817 819 820 822 823 824 824 823 823 824 825 826
752 757 763 765 770 773 768 765 766 762 762 772 781 785 786 779 770 767 768 768 770 771 773 781 792 799 799 795 795 800 801 802 806 808 807 807 807 806 806 807 808 809 810 810 810 810 810 810 810 810 809 808 807 807 806 806 806 807 808 809 810 810 810 811 812 812 812 813 814 815 816 817 818 819 821 822 823 824 823 823 823 823 822 824 825 826
757 759 764 768 770 773 774 771 767 766 771 780 784 785 786 781 773 772 777 779 778 776 777 786 796 802 804 804 807 810 810 809 811 812 810 810 810 811 811 811 812 812 812 811 811 812 814 814 812 812 812 812 811 811 810 809 810 812 813 813 813 813 814 815 816 816 817 817 818 819 819 819 819 820 822 822 822 822 821 821 822 822 822 823 825 826
761 761 765 768 768 772 776 774 771 774 780 785 785 785 784 781 776 776 781 787 789 787 788 794 801 805 810 813 814 815 814 812 813 815 815 814 814 813 813 813 815 815 814 812 811 813 815 816 815 815 816 815 815 814 813 813 814 814 815 816 816 816 817 817 818 818 820 820 821 822 821 820 820 820 821 821 821 820 820 820 821 821 822 824 826 828
758 761 764 767 770 772 775 775 776 781 785 785 785 786 784 781 781 779 781 788 793 791 791 798 805 810 812 814 815 816 816 813 814 818 818 818 817 816 815 816 817 817 816 815 814 815 817 818 819 819 820 820 819 817 816 817 818 817 817 818 819 819 820 819 819 820 821 822 823 823 823 822 821 821 821 821 820 820 820 821 822 822 823 826 830 831
754 758 761 767 773 775 778 784 785 785 787 789 789 791 790 791 792 790 789 794 796 794 795 801 807 812 813 814 816 816 813 813 818 823 822 820 820 818 817 818 818 817 817 817 817 818 818 820 821 822 822 822 822 821 820 820 821 820 820 820 821 821 821 821 822 823 824 824 824 824 824 824 823 823 823 823 822 822 823 823 824 824 826 828 829 830
753 756 757 764 775 777 777 784 786 784 789 795 795 792 792 793 793 791 792 796 798 797 799 802 806 811 813 814 816 814 810 813 823 827 824 822 821 819 818 818 817 817 818 818 819 819 820 821 822 822 823 822 822 823 823 822 823 822 821 822 822 823 823 824 825 827 827 827 827 826 826 826 825 825 825 825 825 826 826 826 826 827 828 828 828 828
758 760 758 762 773 775 773 782 789 789 793 798 795 790 790 791 790 787 789 796 799 800 802 803 806 810 811 811 813 812 809 816 827 827 823 822 821 819 819 819 818 818 819 820 820 821 822 822 822 823 823 822 822 824 825 824 824 823 823 824 825 825 826 827 828 829 830 830 830 830 829 828 828 827 827 827 827 827 827 827 827 827 827 826 826 825
764 766 764 767 775 778 779 789 796 796 795 796 793 789 789 788 787 785 788 793 797 798 801 804 807 809 810 810 811 811 810 816 823 823 821 822 823 822 822 822 821 821 820 821 822 822 823 823 823 824 825 824 825 825 825 825 824 824 826 827 827 828 829 830 831 831 832 832 832 832 832 831 831 831 830 830 829 829 828 828 827 827 826 825 824 823
772 773 775 778 782 784 787 795 800 798 796 795 793 790 789 786 785 787 789 792 795 798 801 804 806 808 809 809 809 811 812 813 817 820 822 824 824 824 825 824 824 823 823 823 824 823 823 823 823 824 825 826 826 826 826 825 824 825 827 827 828 829 831 832 832 832 832 833 833 833 834 834 834 834 833 833 832 832 831 830 829 828 826 825 824 823
777 780 783 786 788 789 791 797 801 799 797 797 795 791 788 785 786 791 794 794 795 799 801 804 805 806 807 808 809 811 814 815 817 820 823 825 825 826 826 826 826 826 826 826 826 824 824 824 824 825 825 826 827 827 827 826 826 827 828 828 829 831 831 832 832 832 833 833 834 834 835 835 836 835 835 835 834 834 833 832 831 830 829 827 826 824
782 785 790 793 793 793 795 800 802 802 801 799 794 790 791 792 792 795 797 796 797 800 802 804 806 806 807 809 810 812 815 818 820 822 824 825 826 827 827 828 828 829 828 828 827 826 826 827 827 828 828 829 829 829 829 828 828 829 829 830 832 832 832 832 832 832 833 833 833 834 834 835 835 835 835 835 835 834 834 833 832 832 830 829 828 826
784 786 791 796 796 796 802 808 810 809 808 802 796 796 801 801 798 796 797 799 801 802 802 804 807 808 808 810 813 815 818 820 822 824 825 827 828 828 829 830 830 830 830 830 829 829 829 829 830 830 831 831 832 832 832 832 831 832 833 834 835 834 833 833 833 833 833 833 833 833 833 833 834 834 834 834 833 833 833 832 832 831 830 829 828 827
789 787 789 798 802 801 805 811 813 811 809 805 803 803 804 803 801 800 800 803 805 805 805 806 809 811 811 812 814 817 820 822 824 825 826 828 829 829 830 830 831 831 831 831 831 831 831 831 832 832 833 833 834 834 835 835 834 835 836 837 837 836 835 835 834 834 834 834 833 833 833 833 832 832 832 832 832 831 831 830 830 829 828 828 827 826
792 789 789 798 804 805 807 811 812 811 810 808 807 807 806 805 806 804 804 806 809 809 808 809 811 813 814 814 816 819 821 823 824 825 826 828 829 830 831 832 832 832 832 832 832 832 833 833 834 835 835 836 836 836 837 837 837 837 838 838 838 837 837 836 836 835 835 835 834 834 833 832 832 831 831 831 830 830 829 829 828 827 827 826 825 824
792 790 793 799 803 807 812 814 812 811 812 810 809 809 809 809 809 808 808 811 812 812 812 813 814 815 816 817 818 821 823 824 824 826 828 829 830 831 831 832 833 833 833 833 834 834 834 834 835 836 837 837 838 838 838 838 838 838 839 838 838 837 837 836 835 835 834 834 834 833 832 831 831 830 829 829 828 828 827 827 826 825 825 824 823 822
793 792 796 802 804 807 813 815 813 813 813 811 811 812 812 811 812 812 812 813 813 814 815 816 817 818 818 820 821 822 824 825 826 827 829 831 832 832 832 833 833 834 834 835 835 835 836 836 836 837 837 838 839 839 838 838 839 838 838 837 837 836 835 834 834 834 833 833 832 832 831 831 830 829 828 828 827 826 826 825 824 823 823 822 821 820
795 796 800 805 808 812 815 816 815 815 817 816 814 814 814 814 814 814 815 815 816 817 818 818 819 819 820 822 823 824 826 828 828 829 831 833 833 834 834 834 835 835 836 836 836 836 837 837 837 837 838 838 839 838 838 838 838 838 837 836 836 835 834 834 834 833 833 832 831 831 830 830 829 828 827 826 826 825 825 824 823 822 821 821 820 819
798 802 805 808 812 814 815 814 812 813 817 819 817 816 816 816 815 816 817 817 818 819 819 820 821 822 822 823 824 826 829 831 831 832 834 835 836 836 836 836 836 836 837 837 837 838 838 838 838 838 838 839 839 838 838 838 838 838 837 837 836 835 835 835 834 834 833 833 832 831 830 829 828 827 826 825 824 823 822 822 821 821 819 818 818 817
801 803 804 807 810 811 809 809 808 809 814 817 816 816 817 817 817 819 819 820 820 821 821 821 823 825 826 827 827 828 830 832 833 834 835 837 837 837 837 837 837 837 837 838 838 839 839 839 839 838 839 839 839 839 839 839 839 839 838 838 837 836 836 836 835 834 834 833 832 831 830 829 828 827 825 824 823 821 820 818 818 817 817 816 815 814
Wind_Speed
4 3 5 7 6 4 5 6 8 6 4 5 6 5 5 6 6 7 9 7 2 3 7 9 11 12 14 15 13 11 7 5 8 11 9 9 11 11 12 11 11 10 8 11 16 19 20 22 25 26 27 28 27 30 33 33 33 29 29 28 22 21 25 26 27 27 25 23 22 23 23 22 21 19 17 15 13 11 10 9 9 9 10 10 10 8
3 6 8 8 6 6 8 8 7 7 7 7 6 6 7 6 7 10 11 8 2 3 6 10 11 13 15 15 14 11 6 6 9 12 12 13 12 11 12 13 11 8 7 10 13 17 20 21 25 25 26 30 28 29 35 38 34 29 28 27 24 24 26 27 27 28 28 26 24 24 23 22 20 18 17 16 14 11 9 9 8 8 8 9 8 7
2 7 9 8 7 7 8 7 7 7 7 6 5 5 6 6 7 11 8 4 2 2 6 10 10 12 17 15 13 12 10 8 9 14 16 17 14 11 12 12 11 10 9 10 10 13 18 22 25 24 24 29 30 30 36 35 30 28 29 27 27 28 28 28 28 28 28 26 23 22 22 21 20 18 17 15 14 11 9 9 8 7 7 6 6 7
4 7 9 9 7 7 8 8 7 6 5 5 5 4 6 7 6 6 5 4 4 3 5 9 8 9 12 10 10 11 8 5 5 13 16 19 18 15 15 14 14 14 11 11 10 10 14 17 18 21 26 26 24 25 29 28 25 28 31 29 29 30 30 30 28 26 25 24 21 21 21 20 19 19 17 16 15 13 11 9 8 7 7 6 6 6
9 11 6 6 7 8 8 9 6 5 5 5 6 6 7 9 8 6 5 6 7 6 3 2 2 5 6 6 9 7 2 3 2 9 13 13 12 13 13 12 11 11 11 12 11 9 11 13 14 21 29 25 19 16 18 22 26 30 33 32 31 32 32 31 28 26 24 22 22 21 19 18 19 18 18 18 17 15 13 10 9 9 8 7 6 6
11 13 5 6 8 8 8 9 7 7 4 6 7 10 12 13 10 7 7 5 6 7 3 4 3 6 5 2 7 4 2 2 2 9 13 11 10 11 11 10 9 10 10 11 12 12 14 19 22 27 31 26 21 20 24 27 25 28 31 31 31 32 32 30 28 26 23 23 24 23 21 22 22 21 20 20 19 16 14 13 11 11 9 8 7 7
8 10 6 8 9 8 9 9 8 8 5 6 6 9 13 10 7 6 5 3 1 5 4 3 2 4 5 3 6 2 2 1 2 6 9 9 10 11 10 10 11 11 11 12 14 15 15 19 22 24 28 28 26 28 32 30 21 21 27 28 30 31 30 29 27 25 24 24 25 25 25 26 25 22 21 19 17 14 14 14 12 10 10 10 9 9
7 8 7 9 8 7 7 8 9 9 7 6 6 7 9 6 5 5 3 2 3 4 6 3 4 2 3 5 5 1 4 5 6 7 6 7 10 11 10 12 13 12 12 14 15 15 14 16 18 21 26 29 31 29 28 27 22 24 29 30 30 29 27 27 26 25 26 27 27 28 28 27 25 23 21 19 16 14 13 13 12 10 9 10 9 9
6 8 9 10 8 6 7 10 12 9 7 7 7 7 7 5 5 4 3 4 2 2 6 6 2 2 3 6 4 4 5 7 7 7 7 9 11 13 12 13 15 13 13 14 14 14 12 15 21 27 28 30 35 35 30 29 28 29 33 33 31 28 26 26 27 28 28 29 30 31 30 29 26 23 22 21 18 16 14 13 12 11 11 11 9 9
5 7 9 8 6 6 10 14 13 9 7 7 6 5 4 3 2 2 4 4 1 1 5 7 1 1 4 5 5 5 4 5 4 4 6 10 12 13 13 14 14 12 11 12 13 13 15 19 23 25 26 27 35 40 36 32 31 32 36 35 31 27 25 27 29 30 30 32 32 32 31 28 26 23 23 23 21 18 16 14 13 13 12 11 10 9
7 7 6 5 6 8 9 11 11 13 10 4 4 2 3 3 2 0 2 1 2 2 7 8 2 4 2 5 3 5 3 6 8 5 6 9 13 14 13 14 14 11 11 11 11 12 17 22 24 22 21 23 31 38 39 36 34 35 36 34 29 27 26 28 30 31 31 31 31 30 29 27 26 25 25 26 23 20 18 17 15 13 12 11 10 10
7 7 6 5 7 8 7 6 5 7 6 4 4 1 2 4 4 3 3 3 3 4 7 7 4 6 1 3 4 8 4 9 12 10 12 12 12 12 11 12 12 11 13 12 10 11 13 15 18 19 20 22 27 33 37 37 36 35 34 33 29 28 27 28 30 30 29 29 29 29 29 28 27 27 28 27 24 21 20 19 17 15 13 11 10 10
5 6 6 5 6 6 6 6 3 3 1 3 3 4 2 3 3 2 3 0 3 5 6 5 5 4 2 1 7 11 4 8 10 10 14 16 15 13 12 12 10 11 13 11 9 10 11 11 13 18 22 24 25 27 31 33 33 33 33 33 31 30 28 27 28 29 28 28 28 29 29 28 28 28 27 25 23 21 20 20 19 17 14 12 10 10
5 6 5 3 5 3 6 5 2 3 0 3 3 4 4 2 0 2 3 1 2 4 5 3 2 1 1 2 8 11 5 6 12 11 10 12 13 13 11 10 10 10 12 11 9 10 10 10 14 18 21 23 24 25 26 25 26 29 30 30 29 29 27 26 27 28 27 25 25 27 29 29 28 27 25 23 22 21 20 20 18 15 14 13 11 10
3 6 4 4 4 2 5 6 7 5 3 3 4 5 5 4 4 3 3 2 3 3 4 4 0 1 1 2 7 8 8 4 11 13 11 10 8 8 7 8 10 10 10 9 9 9 8 9 13 15 17 21 22 20 16 15 18 22 24 25 25 26 25 23 23 25 24 22 22 27 29 27 26 24 23 23 22 21 19 18 17 15 15 14 13 11
4 5 7 6 5 5 5 5 7 6 2 4 2 5 3 6 6 2 3 4 3 1 3 2 2 2 4 1 5 10 11 7 5 9 10 10 7 7 7 6 8 9 8 8 8 8 7 8 9 9 12 15 13 9 5 9 16 19 22 22 22 24 23 21 20 21 21 19 21 26 27 26 25 22 23 24 22 19 18 17 17 17 16 15 14 12
3 5 7 4 3 5 8 7 6 6 3 2 1 3 5 5 7 3 1 1 3 3 2 0 4 2 4 3 6 11 11 5 4 7 8 8 7 7 6 5 6 6 7 7 7 7 6 7 6 6 8 7 5 4 3 6 12 17 21 22 21 21 21 19 19 19 19 18 20 23 25 25 24 21 22 23 21 18 17 16 17 17 16 15 14 13
3 5 7 4 5 7 7 6 4 5 7 3 2 5 3 2 4 3 2 1 3 3 3 1 5 2 2 1 2 7 11 7 6 7 8 7 6 6 4 3 2 3 5 4 4 3 2 2 3 3 5 4 4 5 6 6 7 11 16 19 19 20 20 18 17 18 17 15 16 20 23 23 22 20 20 20 19 17 16 15 17 17 17 16 14 13
2 4 8 6 6 5 1 2 2 4 2 4 4 3 2 2 0 1 2 1 2 2 2 3 1 1 1 1 2 4 8 12 12 10 9 8 6 5 3 2 2 3 4 4 5 5 4 4 5 4 5 5 5 8 9 8 6 8 11 13 14 16 17 16 15 15 15 12 14 19 22 22 21 19 19 18 18 17 15 15 17 18 17 16 14 11
1 1 5 6 3 1 4 4 1 5 6 2 1 1 2 3 3 2 2 3 3 3 1 2 2 0 1 2 2 4 5 11 14 11 9 8 7 5 3 3 2 3 5 5 6 6 6 8 8 7 8 9 8 9 10 9 8 9 9 10 12 13 14 13 11 11 9 7 10 15 19 21 20 19 19 18 18 16 15 16 18 18 17 14 12 11
3 1 3 7 5 2 2 1 2 2 2 3 3 1 2 1 2 2 1 2 4 4 3 2 0 2 3 2 2 4 3 7 11 10 9 8 8 6 4 4 4 4 6 6 7 7 8 10 11 10 11 11 11 11 10 10 10 10 10 10 10 11 12 11 9 8 10 13 13 10 12 16 18 20 19 17 16 15 15 16 17 16 14 12 11 13
1 1 2 4 4 2 2 3 6 10 6 4 3 1 1 1 4 3 2 2 3 4 4 5 3 4 2 3 5 4 2 6 9 9 8 8 8 7 6 5 5 4 5 6 6 7 8 11 12 12 13 13 13 13 11 11 11 11 10 10 9 10 11 10 9 8 8 11 12 12 14 15 15 19 19 16 15 14 14 15 15 14 12 11 13 14
2 3 1 3 3 2 3 3 9 12 10 8 4 2 0 2 4 5 4 3 2 3 2 4 3 3 0 5 6 6 5 5 5 6 8 8 7 7 6 5 4 4 4 6 6 5 7 11 12 13 15 15 15 16 15 13 13 13 12 10 10 10 10 9 8 6 5 8 13 17 17 15 13 16 17 16 14 13 14 14 13 12 10 11 13 13
1 3 2 3 3 3 2 2 8 8 7 7 4 4 3 1 0 4 5 3 3 3 1 3 1 2 3 5 5 5 7 7 5 4 7 7 6 7 7 6 5 5 5 6 6 6 8 12 11 12 14 15 17 18 16 14 14 14 13 12 11 10 9 8 10 10 8 10 14 16 16 14 12 10 12 15 14 12 13 13 13 12 11 11 12 12
0 1 2 2 2 3 2 1 4 6 5 4 2 4 4 4 3 0 1 2 2 3 4 5 2 3 4 5 4 5 8 8 5 4 5 4 5 7 7 7 8 8 7 8 8 8 9 9 9 10 13 16 17 15 12 12 11 11 11 13 13 12 11 11 13 12 10 10 12 15 16 15 14 10 9 13 12 9 11 13 12 12 11 11 12 14
1 2 3 3 2 2 3 4 2 2 3 3 2 5 6 7 7 2 2 4 2 3 2 4 3 3 6 6 5 6 8 8 7 5 4 4 5 7 8 9 9 9 9 11 11 10 9 9 10 12 13 13 14 13 11 10 10 9 11 12 13 13 12 13 15 14 14 13 13 14 16 17 18 15 10 10 9 8 11 12 11 12 12 12 13 14
3 1 2 5 5 4 5 6 4 2 4 3 2 6 7 6 7 5 3 2 3 2 4 1 5 8 8 8 8 7 7 8 7 7 7 6 7 8 9 10 10 9 9 10 11 10 10 10 11 14 15 13 13 13 12 10 9 10 11 11 12 12 11 11 13 15 17 17 15 16 19 20 18 16 14 13 11 9 11 12 12 12 13 13 13 13
4 2 2 2 1 2 3 3 0 4 5 4 4 5 6 6 8 8 3 1 2 4 2 2 8 11 9 8 8 8 7 8 7 7 7 8 9 10 10 12 12 11 11 12 11 11 10 9 10 13 17 18 18 18 17 14 11 9 10 12 12 11 9 9 11 14 15 16 16 19 21 20 18 17 18 19 13 8 11 15 13 13 13 13 13 12
5 1 4 2 2 4 3 2 4 6 5 4 5 5 6 7 8 7 2 3 2 4 4 6 8 8 7 8 7 6 6 7 8 8 9 10 10 10 12 13 12 12 13 12 11 10 10 9 9 13 17 20 21 22 21 20 16 11 10 11 12 11 10 10 12 12 11 11 13 16 16 16 18 18 19 20 12 4 8 13 14 14 13 13 14 12
4 2 4 3 2 4 6 5 4 7 7 7 7 6 6 7 7 7 5 4 6 6 5 9 9 6 3 5 6 6 6 7 8 9 10 10 10 11 13 13 12 12 12 11 10 9 9 10 12 15 19 21 22 23 23 23 22 19 16 14 14 15 13 12 12 11 9 9 10 12 10 11 15 17 15 13 8 5 7 9 9 12 12 10 12 12
3 1 3 3 2 3 7 8 5 7 11 9 9 9 9 6 5 5 5 6 8 8 7 10 10 5 4 2 7 8 7 9 10 9 10 10 9 11 13 13 12 11 11 10 10 10 11 12 14 17 20 21 22 23 24 25 27 27 24 22 22 22 20 18 16 12 10 10 10 9 8 6 8 10 8 6 4 6 9 8 6 8 9 7 7 9
3 1 2 4 3 2 5 6 2 6 11 10 9 10 11 6 1 2 1 3 6 7 8 8 6 3 4 2 7 8 9 12 11 8 9 8 8 10 12 12 11 10 10 9 10 11 11 11 12 15 18 20 22 24 24 26 29 29 27 27 27 28 29 28 25 20 16 12 11 10 8 6 5 6 6 4 3 5 8 9 8 6 7 6 2 2
2 2 1 3 2 2 5 5 1 4 7 5 4 6 8 6 1 3 3 3 5 7 8 5 3 2 2 3 8 10 10 11 9 6 7 7 8 9 10 10 11 9 9 10 10 11 11 11 13 16 18 20 22 23 24 27 29 27 25 26 27 29 31 30 30 30 27 22 19 17 15 11 9 7 5 3 2 3 4 7 8 7 6 6 4 4
2 5 3 2 2 1 5 6 3 3 3 1 2 4 6 6 1 5 7 6 5 5 6 6 6 5 5 6 9 8 8 9 8 6 7 6 6 7 9 9 9 8 9 10 10 10 10 13 18 21 21 21 22 22 25 27 27 26 26 27 27 29 29 29 30 30 29 28 26 25 24 21 18 15 12 11 9 7 5 1 2 3 3 4 5 6
4 4 2 1 3 2 2 3 2 1 1 0 2 6 6 3 3 8 10 9 7 9 13 12 10 9 9 9 8 7 8 10 10 9 9 7 5 6 9 9 8 8 8 8 9 11 12 15 19 22 23 23 23 24 26 26 26 27 28 28 28 28 28 28 29 28 27 27 26 26 26 25 24 23 21 20 20 18 15 11 7 6 6 6 6 8
5 4 2 2 2 2 1 2 2 2 1 3 4 6 6 5 5 7 9 9 5 8 12 13 11 10 10 10 8 7 7 10 11 9 7 6 5 5 7 7 7 6 7 7 9 11 14 17 18 19 20 20 22 25 25 24 24 26 27 26 27 27 27 28 28 27 26 25 25 25 25 24 23 23 22 22 21 21 21 18 15 13 11 8 7 8
5 3 2 2 2 2 3 2 1 2 3 5 4 4 2 2 3 2 3 4 4 3 8 12 12 10 9 9 8 8 8 10 10 6 5 5 4 4 5 6 7 7 8 10 12 13 15 17 17 18 20 21 21 22 21 20 21 24 26 25 25 26 27 28 28 27 25 25 23 22 22 22 22 21 21 20 20 20 19 17 15 15 13 11 10 10
5 3 3 2 1 1 3 2 2 2 1 1 3 5 2 3 3 2 2 2 4 4 5 11 14 12 11 10 9 8 7 9 6 1 2 2 2 3 4 6 8 9 9 11 13 14 15 16 18 19 21 23 22 20 18 17 17 21 24 25 25 25 27 27 26 25 24 24 22 21 20 20 20 20 20 20 20 19 18 16 14 14 13 13 13 13
8 4 3 4 2 1 3 3 2 1 1 3 5 7 4 3 4 0 3 2 2 5 6 10 13 12 12 12 9 6 4 5 4 2 2 1 2 4 5 7 10 10 9 9 11 13 14 16 19 20 20 21 21 18 17 17 18 22 24 24 24 25 26 25 23 23 22 21 20 19 19 18 18 18 18 19 19 18 18 16 15 14 14 14 15 15
7 4 4 4 2 2 3 2 1 1 1 3 5 7 6 5 2 3 3 2 4 7 7 9 12 11 10 9 6 3 3 5 6 4 4 4 3 5 6 6 9 12 13 12 11 13 15 17 19 20 19 19 18 16 17 19 21 23 23 22 23 23 22 20 19 18 18 18 18 18 18 18 18 17 17 17 17 17 17 17 16 16 16 16 16 17
4 3 3 4 3 3 4 3 1 0 2 3 5 7 7 4 3 3 3 4 5 8 7 8 10 9 6 5 4 3 4 6 8 7 6 5 4 5 7 8 11 15 17 15 13 15 17 18 18 18 17 16 15 16 18 20 21 21 21 22 23 21 19 17 16 16 15 15 16 16 16 16 16 16 16 16 16 15 15 16 16 17 17 17 18 18
2 3 3 2 2 2 3 3 1 0 2 6 7 6 4 3 2 2 2 0 5 8 6 6 7 6 5 5 6 7 7 9 10 9 8 6 5 5 8 11 14 15 15 14 14 16 17 17 16 16 16 15 15 16 18 20 21 21 22 24 24 20 17 16 16 15 15 15 15 15 15 15 15 14 14 15 15 14 14 14 14 14 15 16 16 16
2 2 2 2 1 1 3 3 2 1 4 9 8 4 3 2 3 2 3 5 6 7 7 6 5 6 8 8 9 10 10 10 10 9 8 7 7 8 10 12 12 11 12 14 14 13 14 14 12 11 11 11 12 13 15 18 21 21 22 23 21 17 15 16 16 15 15 15 15 15 15 15 14 14 14 15 14 13 13 13 14 13 14 15 15 15
2 1 1 1 1 1 2 2 2 0 5 8 4 2 2 2 1 4 5 6 6 5 6 7 5 6 9 11 10 10 10 10 9 8 8 7 7 9 11 12 12 12 12 13 12 12 12 11 9 10 10 10 10 12 14 17 19 20 20 19 17 15 15 16 16 16 16 16 16 16 16 15 15 14 14 14 14 14 15 15 15 15 15 15 16 16
2 3 5 2 2 3 3 3 3 2 3 6 6 5 5 6 6 6 7 7 6 4 4 6 7 7 8 10 10 9 9 9 8 8 7 7 6 8 10 12 13 13 11 10 11 11 9 7 9 14 17 17 16 16 17 17 17 18 17 15 14 15 15 15 16 16 16 16 16 15 15 14 14 14 14 15 15 16 16 17 16 16 16 16 17 17
1 3 5 4 4 6 6 4 4 4 5 7 7 6 7 8 7 7 9 8 6 5 6 6 7 7 7 8 9 8 7 7 7 7 7 6 6 9 12 13 13 12 11 10 10 10 8 8 12 17 20 19 17 17 16 16 16 16 14 13 13 14 14 14 15 15 15 15 15 14 14 15 15 15 16 16 16 16 17 17 17 17 17 17 17 17
2 2 4 4 3 4 4 4 4 5 6 6 7 7 8 8 7 7 8 7 6 7 8 8 8 8 8 8 8 7 6 7 7 7 6 6 6 8 11 12 12 12 11 10 10 10 9 13 16 17 17 17 16 15 16 15 15 14 12 11 13 14 14 15 16 16 16 16 15 14 15 17 17 18 18 19 19 19 18 18 18 18 18 18 17 16
2 3 4 4 3 3 3 4 5 5 4 4 5 6 6 7 7 7 7 7 7 7 8 8 8 7 6 7 7 8 7 6 6 6 6 5 7 9 10 12 12 12 11 11 11 9 8 13 15 15 16 16 15 14 14 15 14 13 12 12 13 15 16 17 17 17 17 17 16 15 16 17 18 18 19 19 19 19 19 19 18 18 18 17 16 16
1 3 2 3 4 5 4 5 6 6 5 4 4 5 4 5 6 7 6 7 7 7 7 8 8 7 7 7 7 8 8 7 7 9 7 5 7 9 10 11 11 10 11 12 11 6 7 11 14 15 15 14 13 13 13 14 14 13 13 14 14 15 17 17 16 17 18 17 17 16 16 17 17 17 17 18 18 18 18 18 18 18 17 15 14 16
3 3 2 4 5 3 3 4 5 5 2 1 3 5 4 4 6 6 6 6 7 7 6 7 7 8 9 10 10 10 8 7 10 12 10 7 9 10 10 10 9 8 10 11 9 8 10 12 13 14 13 12 11 12 13 15 15 14 13 13 13 14 15 14 14 15 16 16 17 17 18 18 18 18 18 19 20 20 21 20 19 18 17 16 15 16
3 3 3 4 4 4 4 5 5 5 4 5 5 5 5 4 6 6 5 5 6 6 6 7 7 7 8 9 14 15 11 9 13 15 11 9 11 11 10 10 10 10 10 7 6 9 11 11 12 12 11 10 9 11 13 14 13 11 11 11 11 11 11 11 11 12 14 15 16 17 17 18 18 19 19 20 20 22 23 24 23 21 19 17 17 17
Wind_Direction
156 189 239 225 226 218 227 226 223 254 268 258 277 273 262 268 271 270 271 276 247 235 254 241 240 239 239 240 236 234 225 186 163 158 159 158 158 164 169 172 171 176 171 146 149 155 152 147 141 141 145 142 144 152 161 169 173 179 184 177 166 167 173 174 172 172 175 184 185 179 181 185 188 195 199 200 197 192 193 192 194 195 195 203 205 208
143 200 235 228 213 207 222 229 225 243 251 251 263 271 277 271 270 272 273 284 254 216 257 246 237 240 238 235 234 229 204 193 171 152 157 164 168 171 166 167 166 161 149 139 145 154 153 144 139 140 142 144 148 157 169 176 173 175 179 175 168 170 177 178 177 178 176 181 187 182 182 184 184 190 192 192 191 186 189 189 186 187 193 202 204 205
224 232 238 229 213 208 227 234 224 233 242 245 247 256 269 264 273 275 271 285 250 213 275 262 238 237 237 230 231 226 207 211 183 160 164 167 169 169 162 161 158 154 150 146 148 154 152 142 139 138 139 149 157 162 174 177 171 171 175 173 172 173 179 181 182 183 176 177 186 181 177 179 180 185 187 186 185 179 176 175 172 175 180 188 196 200
238 251 231 222 215 207 234 245 236 244 248 239 237 245 259 256 261 270 277 308 297 252 261 267 245 234 243 240 241 234 218 236 194 168 171 171 170 166 161 161 161 159 152 146 146 145 142 134 135 135 133 144 156 164 176 177 170 175 176 173 174 177 181 181 183 183 174 173 182 177 173 179 183 186 189 187 182 173 165 163 162 161 164 173 184 185
238 251 210 195 214 206 226 245 237 239 256 246 227 224 247 255 244 243 280 314 321 310 279 302 295 253 257 242 244 261 261 271 164 153 170 173 161 149 149 153 153 148 139 136 132 117 110 100 99 117 126 137 150 162 181 183 179 180 178 175 176 180 181 180 182 181 173 174 179 177 173 172 171 174 179 180 175 170 165 164 161 156 160 168 168 165
243 249 200 191 222 209 219 243 228 203 234 264 237 221 233 248 246 249 290 328 348 318 297 74 39 279 299 255 244 293 358 255 112 143 165 159 134 133 139 139 124 116 118 115 108 103 102 103 107 122 135 143 152 163 178 187 189 183 178 176 176 179 180 179 181 178 175 178 181 181 172 160 156 158 165 170 168 167 167 164 159 155 156 153 144 141
242 240 200 207 221 209 217 242 232 188 195 258 240 215 221 228 230 246 288 326 308 274 274 72 109 256 321 321 257 300 42 342 75 124 148 138 136 141 139 134 124 117 113 100 101 109 113 118 125 139 150 152 157 168 175 181 191 186 179 177 177 179 179 178 180 180 181 184 184 183 175 164 160 160 163 166 163 159 162 165 166 165 157 144 132 128
233 231 216 214 213 211 218 242 234 181 170 245 236 205 216 222 228 251 280 263 239 270 303 353 118 153 310 279 262 16 38 24 69 96 97 108 129 131 129 131 126 118 109 104 111 116 117 127 142 158 163 157 157 167 174 176 183 185 181 179 178 179 179 180 184 185 186 187 184 180 174 170 168 165 163 163 158 152 159 167 171 174 166 150 140 136
228 219 221 212 203 208 213 231 228 176 172 240 227 206 224 234 233 250 273 265 277 332 306 307 72 89 277 270 307 18 39 33 63 98 104 116 127 128 127 124 118 113 108 112 120 120 129 151 163 169 169 161 157 164 174 178 180 181 178 177 178 179 180 181 181 182 185 185 180 175 171 169 167 164 163 164 162 158 160 158 152 152 157 158 156 150
241 223 225 210 200 207 216 230 223 183 199 235 210 209 244 247 230 237 248 253 332 342 264 276 346 89 274 294 339 11 42 68 82 76 95 119 129 128 126 120 117 113 109 116 123 132 154 169 171 168 166 163 161 165 173 180 181 179 176 177 179 182 180 175 174 176 177 177 173 170 168 165 163 161 162 165 165 162 161 155 145 143 150 159 161 156
257 264 253 220 212 208 207 225 213 189 198 200 161 216 283 310 19 64 246 161 116 254 254 252 209 127 278 298 338 355 1 140 138 102 102 125 127 127 130 128 126 122 120 127 134 150 164 166 165 162 164 169 167 166 172 180 184 180 178 179 180 181 178 171 171 171 171 171 170 169 167 164 162 161 160 162 163 163 163 161 158 155 155 155 156 161
281 279 262 237 227 209 192 217 217 187 189 150 120 117 298 313 17 33 334 62 131 250 259 240 165 117 180 283 335 331 291 166 149 138 141 139 132 133 136 133 132 130 131 138 147 159 163 160 159 162 170 176 172 169 173 181 184 180 179 179 179 181 179 172 170 170 171 171 170 169 167 165 165 164 163 163 164 165 165 163 162 161 158 151 147 158
297 260 253 257 236 198 177 216 282 359 54 117 103 89 103 285 342 355 303 356 190 245 253 220 129 109 200 80 357 330 282 157 131 133 145 145 144 146 145 142 141 137 137 145 158 165 165 161 165 175 178 176 175 176 178 183 184 180 178 179 178 180 180 174 170 171 172 171 170 170 169 168 167 166 166 166 165 165 167 166 163 163 165 161 152 150
293 287 280 258 246 189 142 173 247 323 64 141 156 132 141 197 265 285 274 293 249 241 259 257 139 154 243 32 356 337 317 133 117 117 133 139 143 146 146 143 138 137 143 151 167 174 171 168 176 182 178 172 177 182 183 187 186 180 179 179 177 179 181 178 173 174 174 174 175 174 171 170 168 168 169 168 165 165 168 170 169 170 174 172 168 161
233 292 275 200 234 220 151 170 180 180 173 184 186 145 154 172 156 216 229 201 240 246 297 311 265 155 126 326 333 7 14 54 119 126 131 128 126 127 127 130 136 145 154 160 174 177 175 180 184 182 175 174 179 180 183 193 189 181 177 176 175 177 180 180 177 177 176 175 176 175 173 173 172 171 170 166 165 166 169 173 175 175 175 173 172 170
190 249 256 229 216 189 188 199 165 141 180 238 159 108 186 195 155 163 191 170 178 174 335 345 39 56 114 81 352 53 46 18 80 111 121 120 116 119 122 139 148 151 159 167 174 173 174 183 190 190 179 172 167 163 177 195 189 181 173 173 175 177 179 181 181 181 177 172 175 176 175 176 175 171 167 165 165 168 172 176 177 176 173 172 172 174
192 248 274 281 262 205 202 206 167 147 181 252 111 162 221 182 135 127 214 203 90 101 283 64 97 75 105 69 19 69 72 38 66 87 98 104 110 124 133 152 155 154 162 169 172 172 178 177 182 197 182 153 120 116 138 180 189 182 171 168 170 174 178 181 183 184 178 173 177 179 176 175 172 167 164 163 163 166 171 177 179 175 172 173 174 176
206 254 282 287 288 268 218 200 196 170 156 137 192 218 225 84 98 111 145 354 60 124 272 24 116 143 89 59 358 102 115 139 140 114 106 103 106 119 121 122 128 139 150 144 124 130 149 143 139 160 157 123 89 114 137 167 193 183 168 163 163 169 175 179 184 185 179 174 178 179 175 170 167 164 164 164 164 165 169 175 178 174 171 172 173 175
194 247 285 270 251 277 318 104 308 295 212 157 179 187 104 103 233 57 132 161 101 150 281 352 86 145 102 159 227 161 147 149 146 137 128 123 119 116 102 89 79 80 100 92 75 66 45 49 58 77 102 97 100 120 136 153 165 164 161 155 153 160 168 172 178 180 178 177 178 178 172 166 163 163 165 165 164 165 165 168 172 171 170 170 173 180
17 180 283 290 249 254 25 47 12 308 315 12 89 64 82 140 166 162 164 158 140 155 213 338 2 15 238 249 185 176 168 142 139 138 136 136 131 122 120 120 100 66 69 74 75 70 58 57 63 78 90 93 104 116 123 123 119 131 146 146 144 151 161 167 169 170 167 154 161 170 167 163 162 162 161 160 160 162 163 164 168 170 170 170 173 176
4 107 241 296 317 61 44 306 118 93 343 24 65 42 342 21 124 149 186 133 127 142 162 158 235 245 262 310 97 132 150 142 140 138 138 144 136 118 101 89 77 66 68 75 84 86 85 84 86 91 93 95 100 107 113 108 101 111 125 133 138 143 152 156 146 129 96 72 74 99 129 148 159 161 161 161 162 162 162 165 169 169 168 168 169 166
5 125 193 288 324 68 188 221 108 96 85 73 87 115 231 170 125 137 251 293 101 128 159 156 180 250 278 27 42 41 82 138 142 138 134 129 117 101 80 70 72 77 82 82 82 82 89 94 95 94 94 95 96 96 101 106 103 105 113 123 129 128 134 139 136 128 102 82 86 109 132 145 155 159 161 162 163 165 166 167 170 169 166 165 164 165
152 111 103 268 262 203 201 154 100 99 92 81 64 355 94 121 107 131 201 256 76 88 115 116 136 232 235 78 57 27 46 97 119 124 117 103 96 90 81 76 68 69 79 85 84 74 76 84 88 91 89 87 86 81 79 88 97 98 98 104 113 117 123 131 135 145 155 137 135 143 152 150 143 149 156 159 161 167 169 169 170 168 164 163 164 169
76 79 32 299 295 309 273 91 74 69 72 73 31 349 20 5 181 159 182 191 137 139 118 87 112 219 145 112 105 69 61 59 48 71 94 97 95 88 85 82 68 60 59 67 74 67 65 71 76 84 84 79 77 76 76 84 93 97 99 104 111 119 128 127 119 114 113 118 128 142 149 145 140 142 147 151 156 167 171 170 172 169 162 162 167 173
319 100 65 22 355 342 281 243 46 42 59 82 2 340 8 10 5 336 181 84 125 208 166 136 189 224 148 135 142 119 98 87 65 41 47 73 90 89 87 84 74 69 63 61 64 60 56 56 55 64 77 81 81 79 83 95 103 107 111 114 115 119 128 127 121 123 126 126 137 154 160 157 164 171 153 142 146 163 176 176 175 174 168 166 172 180
131 163 112 105 150 180 200 217 209 112 92 87 23 7 20 26 22 14 130 99 157 245 91 118 176 165 134 135 134 126 118 116 114 97 76 78 90 87 83 80 75 69 65 65 62 56 50 44 39 42 56 75 87 87 87 99 109 109 108 109 107 107 114 123 126 131 142 143 142 157 169 169 174 179 166 150 156 171 181 184 185 182 179 177 179 186
97 117 102 122 162 195 202 218 225 135 102 102 69 32 29 30 32 51 88 103 179 148 48 77 156 131 130 139 133 131 126 119 120 118 113 103 92 84 78 77 77 73 67 66 64 59 53 45 38 39 43 53 67 73 75 84 99 105 107 108 107 107 109 121 131 132 138 145 143 150 162 166 171 173 164 165 181 192 190 191 195 192 187 187 189 193
93 26 12 96 194 263 213 205 276 73 94 121 118 65 43 38 44 56 57 299 182 122 78 191 148 133 143 150 141 141 134 122 119 116 111 101 91 88 84 80 77 74 71 67 64 63 61 55 50 51 53 54 57 57 54 56 69 89 98 100 109 118 117 121 134 134 136 146 149 151 158 162 166 170 169 171 182 206 206 200 201 198 192 191 195 199
103 25 350 2 300 324 7 68 75 84 90 86 91 90 75 64 68 74 44 284 184 144 166 158 129 120 136 142 143 141 123 114 110 103 99 95 93 93 89 84 78 73 73 71 68 67 67 64 59 56 58 58 56 55 51 49 54 65 73 78 85 91 99 109 118 123 127 137 147 154 160 164 168 171 174 176 178 192 203 200 201 200 196 197 201 203
102 39 344 341 314 355 11 5 34 88 93 64 46 48 58 72 90 90 71 71 86 85 106 114 100 73 74 120 128 115 99 99 100 98 95 91 93 95 90 87 83 78 78 77 73 71 67 63 59 55 55 54 52 52 51 49 54 63 68 67 62 62 73 88 90 91 96 100 119 142 155 170 180 179 176 176 172 157 171 184 190 190 190 195 202 205
60 64 319 7 33 19 18 5 8 91 98 72 37 19 13 29 78 87 87 90 80 69 80 91 86 52 357 47 101 97 92 91 88 91 96 93 94 98 95 91 89 84 83 81 76 70 63 57 55 52 51 50 51 53 54 55 62 68 70 69 68 67 70 73 72 71 71 75 89 108 122 148 178 184 180 175 175 183 190 192 181 172 171 173 189 200
44 66 336 47 57 337 9 14 13 114 95 66 33 12 353 340 69 89 97 121 113 114 108 89 80 58 322 360 85 80 79 84 79 77 89 92 91 94 94 94 90 84 78 72 65 61 56 50 47 47 47 48 51 53 56 62 68 70 70 72 74 75 74 72 72 71 69 71 77 81 92 111 130 154 171 182 215 223 212 210 216 210 187 173 168 217
98 103 70 67 80 319 338 345 300 117 86 50 4 354 332 298 222 88 69 86 110 127 130 124 115 99 330 34 78 73 68 76 76 73 84 91 89 87 88 89 88 84 79 73 64 54 48 47 46 42 41 45 48 51 57 65 69 70 72 75 76 75 74 71 69 70 69 69 68 64 67 78 91 112 135 151 207 217 197 202 221 239 230 222 258 309
96 105 129 139 113 294 305 321 355 75 95 112 335 340 310 280 253 83 69 43 43 89 109 116 114 91 58 66 82 83 75 69 61 53 58 66 79 87 89 87 87 88 87 84 79 68 55 53 54 48 43 43 46 51 60 66 69 70 72 74 73 72 71 68 66 65 64 62 60 57 60 64 67 70 69 64 62 62 57 62 243 272 291 281 276 291
103 102 135 132 108 153 285 347 43 142 212 124 1 336 320 305 75 83 69 41 51 101 107 107 110 104 95 94 92 91 88 78 66 53 47 45 50 75 86 84 80 81 83 83 86 86 78 70 65 59 53 49 49 53 57 61 67 71 71 70 70 68 66 65 62 59 57 56 53 51 53 55 56 56 55 54 53 51 45 37 23 11 3 348 319 297
122 119 118 83 83 142 120 55 147 183 339 10 355 333 343 13 32 60 60 28 32 118 120 115 116 114 111 113 109 101 97 85 73 55 40 39 42 64 86 91 89 88 89 88 90 96 95 89 84 78 70 61 57 56 56 57 64 70 69 67 65 63 60 59 55 51 50 48 45 44 44 44 46 46 44 44 45 45 42 39 33 28 20 3 339 320
116 126 113 67 27 116 119 85 97 97 16 5 355 335 1 32 338 5 71 16 1 102 123 121 122 121 118 118 118 121 111 87 70 40 11 25 41 64 85 98 104 101 98 96 95 95 93 89 87 86 81 73 65 60 60 58 59 63 63 60 59 57 56 55 51 46 43 39 36 34 34 34 36 36 35 35 35 33 31 29 27 25 18 4 351 346
75 114 138 123 52 77 109 94 63 64 355 312 292 289 244 178 237 237 102 36 25 67 117 130 130 132 131 131 141 149 118 86 80 44 333 25 44 55 61 65 74 81 87 95 96 90 85 81 77 74 73 72 68 63 62 62 58 56 55 53 53 54 53 53 50 46 43 39 36 32 29 27 27 26 25 25 25 23 19 15 12 7 2 357 350 345
46 55 91 99 86 64 98 103 93 125 207 235 268 285 286 237 247 172 83 44 80 106 126 135 135 140 147 149 159 167 127 102 125 183 197 155 51 46 51 48 52 59 66 82 91 86 82 81 77 69 63 64 65 61 63 68 66 60 56 53 53 53 51 50 49 49 48 46 42 39 34 30 26 23 21 18 16 14 11 7 1 352 347 346 343 339
33 28 40 64 67 58 80 89 86 117 226 266 280 288 293 288 294 95 116 222 158 138 147 147 143 149 157 159 160 150 121 137 156 167 159 145 108 86 88 71 54 53 56 66 83 86 83 80 75 67 61 61 63 62 63 68 69 64 58 55 55 52 49 48 48 47 46 43 41 38 35 32 30 26 22 16 10 7 3 358 352 346 341 339 337 335
20 17 38 70 64 48 76 96 93 228 283 311 302 291 298 326 26 113 194 222 148 136 143 145 147 153 158 157 144 96 96 123 134 136 132 127 119 110 103 88 75 67 63 68 79 82 78 70 63 59 58 59 62 62 59 59 60 59 54 51 50 49 50 50 45 40 37 33 32 31 29 27 25 23 21 16 9 4 360 355 351 347 343 338 336 334
22 17 19 55 48 33 80 92 67 265 324 332 316 304 334 41 118 195 246 94 119 130 130 128 140 145 131 121 114 108 110 117 122 126 124 118 113 97 83 79 79 77 73 75 80 80 75 65 58 58 57 57 59 56 49 51 56 56 51 49 48 47 47 46 40 35 33 30 28 26 22 20 18 18 17 12 9 8 7 5 360 354 351 347 342 339
57 56 24 21 20 41 65 54 54 206 319 330 326 330 14 52 172 162 70 64 90 114 115 107 114 122 116 109 107 112 115 115 116 119 119 119 115 103 96 92 85 79 75 73 75 82 82 73 66 65 58 53 53 46 43 55 61 57 50 46 42 36 33 31 27 24 22 21 20 18 15 14 14 16 15 13 13 14 14 13 8 4 2 359 354 352
17 89 122 322 331 75 93 59 71 195 318 337 4 71 36 4 55 89 83 74 68 82 102 101 95 105 113 113 110 110 110 112 115 116 112 111 110 104 103 101 93 83 73 68 73 84 88 82 73 64 55 53 57 55 57 65 65 58 51 43 32 23 20 16 12 10 10 10 10 9 10 11 13 15 18 19 17 16 13 11 6 4 3 0 358 358
358 107 117 88 39 71 103 110 106 99 11 14 42 70 62 47 46 64 81 81 67 60 82 95 94 92 100 107 108 105 107 113 115 114 111 109 105 102 99 98 96 88 73 68 74 73 69 74 77 72 70 71 72 69 65 62 58 55 50 39 26 20 17 11 8 8 8 8 7 5 6 8 10 11 13 13 12 12 11 8 4 1 360 357 356 357
43 94 93 91 86 76 73 84 94 81 59 51 53 59 64 60 52 60 73 74 67 66 70 80 87 84 82 92 97 96 102 108 106 105 109 108 105 105 102 99 96 88 74 66 60 48 49 82 92 85 79 75 71 66 60 52 49 50 45 34 25 20 16 12 12 12 11 10 8 6 5 5 4 4 2 2 2 2 1 0 358 355 353 352 352 353
318 43 68 90 105 90 84 101 103 95 90 83 76 70 68 68 63 65 75 79 76 75 75 77 80 80 76 81 88 90 94 102 105 102 100 100 100 100 98 93 87 79 68 53 41 40 67 95 96 89 82 75 65 58 54 48 45 43 38 30 23 15 10 10 11 9 7 4 1 358 356 355 354 353 352 350 349 348 347 348 348 346 345 345 345 344
342 62 79 83 69 71 108 126 108 91 82 80 87 89 86 85 83 80 85 93 88 81 81 83 86 88 84 83 90 89 80 80 97 100 95 92 91 89 86 81 75 69 57 41 31 38 76 96 94 86 79 73 62 52 47 43 39 34 26 20 15 7 5 7 8 9 9 7 3 359 354 351 349 346 345 344 344 344 344 343 341 339 336 334 333 332
37 60 83 107 89 76 94 113 106 82 48 36 78 103 103 102 105 103 98 97 94 90 83 79 85 98 107 105 97 88 77 67 76 86 86 80 78 77 76 76 75 67 50 35 31 48 90 99 95 87 79 72 59 45 37 29 23 18 12 7 3 360 2 4 4 5 7 7 5 1 355 350 348 344 342 340 340 342 343 341 339 334 328 323 321 319
71 77 83 107 114 140 178 160 139 115 95 165 154 134 123 112 103 102 101 102 104 104 99 91 89 92 100 107 103 94 85 78 80 83 80 72 67 66 66 68 67 54 39 34 48 85 101 101 96 89 81 70 50 32 22 13 6 3 1 358 356 356 359 358 354 353 356 356 354 350 345 343 342 341 339 337 337 338 338 337 336 333 326 320 315 313
93 139 153 132 146 197 196 166 144 125 145 181 167 145 140 123 97 92 99 106 111 117 119 114 101 83 77 86 97 100 102 101 96 93 86 71 65 64 61 55 46 40 35 38 71 89 87 89 94 90 79 65 44 28 20 13 5 358 352 350 349 349 349 347 345 345 346 345 344 342 339 337 336 337 338 338 337 335 332 329 329 328 325 321 316 314